• In Deutschland
  • Länderverzeichnis
  • Für 7 Tage
  • Wassertemperatur
  • Satellitenkarten
  • Wetterkarte
  • Widgets
  • user-avatar
    Anmelden

    Stündliche Wetter Asadabad

    Heute, 26 Juni, Montag

    Zeit Temperatur Niederschläge Wind Luftdruck Luftfeuchtigkeit
    00:00 +28°C° 0,2 mm 1 m/S 654 mmHg 60%
    01:00 +27°C° 0,2 mm 1 m/S 654 mmHg 61%
    02:00 +27°C° 0,2 mm 1 m/S 654 mmHg 62%
    03:00 +27°C° 0,4 mm 1 m/S 654 mmHg 63%
    04:00 +26°C° 0,4 mm 1 m/S 654 mmHg 65%
    05:00 +24°C° 0 mm 0 m/S 654 mmHg 69%
    06:00 +27°C° 0,4 mm 1 m/S 655 mmHg 64%
    07:00 +28°C° 0,4 mm 1 m/S 655 mmHg 58%
    08:00 +30°C° 0,4 mm 1 m/S 656 mmHg 53%
    09:00 +31°C° 0,5 mm 1 m/S 656 mmHg 50%
    10:00 +32°C° 0,5 mm 2 m/S 656 mmHg 47%
    11:00 +33°C° 0 mm 3 m/S 657 mmHg 48%
    12:00 +33°C° 0,3 mm 3 m/S 656 mmHg 46%
    13:00 +34°C° 0,3 mm 3 m/S 656 mmHg 44%
    14:00 +35°C° 0,3 mm 3 m/S 656 mmHg 42%
    15:00 +35°C° 0,2 mm 3 m/S 656 mmHg 42%
    16:00 +35°C° 0,2 mm 2 m/S 656 mmHg 42%
    17:00 +34°C° 0 mm 3 m/S 656 mmHg 45%
    18:00 +32°C° 0,3 mm 2 m/S 656 mmHg 49%
    19:00 +31°C° 0,3 mm 2 m/S 655 mmHg 53%
    20:00 +30°C° 0,3 mm 1 m/S 655 mmHg 57%
    21:00 +29°C° 0,1 mm 1 m/S 655 mmHg 58%
    22:00 +29°C° 0,1 mm 1 m/S 656 mmHg 60%
    23:00 +28°C° 0,1 mm 1 m/S 656 mmHg 62%

    Morgen, 27 Juni, Dienstag

    Zeit Temperatur Niederschläge Wind Luftdruck Luftfeuchtigkeit
    00:00 +28°C° 0,2 mm 1 m/S 656 mmHg 62%
    01:00 +27°C° 0,2 mm 1 m/S 655 mmHg 62%
    02:00 +27°C° 0,2 mm 1 m/S 655 mmHg 62%
    03:00 +26°C° 0,2 mm 1 m/S 655 mmHg 62%
    04:00 +26°C° 0,2 mm 1 m/S 655 mmHg 61%
    05:00 +26°C° 0,2 mm 1 m/S 655 mmHg 60%
    06:00 +27°C° 0,1 mm 1 m/S 656 mmHg 53%
    07:00 +29°C° 0,1 mm 1 m/S 656 mmHg 46%
    08:00 +30°C° 0,1 mm 1 m/S 656 mmHg 39%
    09:00 +32°C° 0 mm 1 m/S 656 mmHg 36%
    10:00 +34°C° 0 mm 2 m/S 657 mmHg 33%
    11:00 +35°C° 0 mm 2 m/S 657 mmHg 29%
    12:00 +36°C° 0 mm 2 m/S 656 mmHg 28%
    13:00 +36°C° 0 mm 3 m/S 656 mmHg 26%
    14:00 +37°C° 0 mm 3 m/S 656 mmHg 25%
    15:00 +37°C° 0 mm 3 m/S 655 mmHg 24%
    16:00 +37°C° 0 mm 3 m/S 655 mmHg 23%
    17:00 +37°C° 0 mm 3 m/S 655 mmHg 23%
    18:00 +35°C° 0 mm 2 m/S 655 mmHg 27%
    19:00 +32°C° 0 mm 1 m/S 654 mmHg 31%
    20:00 +31°C° 0 mm 1 m/S 654 mmHg 34%
    21:00 +30°C° 0 mm 1 m/S 654 mmHg 36%
    22:00 +29°C° 0 mm 1 m/S 655 mmHg 38%
    23:00 +29°C° 0 mm 1 m/S 655 mmHg 39%

    übermorgen, 28 Juni, Mittwoch

    Zeit Temperatur Niederschläge Wind Luftdruck Luftfeuchtigkeit
    00:00 +28°C° 0 mm 1 m/S 655 mmHg 40%
    01:00 +28°C° 0 mm 1 m/S 654 mmHg 42%
    02:00 +27°C° 0 mm 1 m/S 654 mmHg 43%
    03:00 +26°C° 0,1 mm 1 m/S 654 mmHg 44%
    04:00 +26°C° 0,1 mm 1 m/S 654 mmHg 46%
    05:00 +23°C° 0,1 mm 0 m/S 654 mmHg 47%
    06:00 +27°C° 0 mm 1 m/S 655 mmHg 42%
    07:00 +29°C° 0 mm 1 m/S 655 mmHg 36%
    08:00 +31°C° 0 mm 1 m/S 656 mmHg 31%
    09:00 +32°C° 0 mm 1 m/S 656 mmHg 29%
    10:00 +34°C° 0 mm 2 m/S 656 mmHg 27%
    11:00 +35°C° 0 mm 2 m/S 656 mmHg 25%
    12:00 +35°C° 0 mm 2 m/S 656 mmHg 24%
    13:00 +36°C° 0 mm 3 m/S 656 mmHg 24%
    14:00 +37°C° 0 mm 3 m/S 656 mmHg 23%
    15:00 +37°C° 0,1 mm 3 m/S 655 mmHg 23%
    16:00 +36°C° 0,1 mm 3 m/S 655 mmHg 24%
    17:00 +36°C° 0,1 mm 3 m/S 655 mmHg 25%
    18:00 +34°C° 0,2 mm 2 m/S 655 mmHg 31%
    19:00 +32°C° 0,2 mm 2 m/S 655 mmHg 37%
    20:00 +30°C° 0,2 mm 1 m/S 655 mmHg 42%
    21:00 +29°C° 0,3 mm 1 m/S 655 mmHg 44%
    22:00 +29°C° 0,3 mm 1 m/S 655 mmHg 46%
    23:00 +28°C° 0,3 mm 1 m/S 655 mmHg 47%

    29 Juni, Donnerstag

    Zeit Temperatur Niederschläge Wind Luftdruck Luftfeuchtigkeit
    00:00 +28°C° 0,2 mm 1 m/S 655 mmHg 49%
    01:00 +27°C° 0,2 mm 1 m/S 655 mmHg 50%
    02:00 +27°C° 0,2 mm 1 m/S 654 mmHg 51%
    03:00 +26°C° 0,1 mm 1 m/S 654 mmHg 52%
    04:00 +26°C° 0,1 mm 1 m/S 654 mmHg 53%
    05:00 +25°C° 0,1 mm 1 m/S 654 mmHg 54%
    06:00 +27°C° 0 mm 1 m/S 654 mmHg 48%
    07:00 +28°C° 0 mm 1 m/S 655 mmHg 43%
    08:00 +30°C° 0 mm 1 m/S 655 mmHg 37%
    09:00 +31°C° 0 mm 2 m/S 655 mmHg 35%
    10:00 +32°C° 0 mm 2 m/S 655 mmHg 33%
    11:00 +34°C° 0 mm 3 m/S 655 mmHg 31%
    12:00 +34°C° 0,1 mm 3 m/S 655 mmHg 31%
    13:00 +35°C° 0,1 mm 3 m/S 655 mmHg 31%
    14:00 +35°C° 0,1 mm 3 m/S 655 mmHg 31%
    15:00 +35°C° 0,3 mm 3 m/S 654 mmHg 31%
    16:00 +35°C° 0,3 mm 3 m/S 654 mmHg 31%
    17:00 +35°C° 0,3 mm 3 m/S 654 mmHg 31%
    18:00 +32°C° 0,2 mm 2 m/S 654 mmHg 36%
    19:00 +31°C° 0,2 mm 2 m/S 653 mmHg 41%
    20:00 +29°C° 0,2 mm 1 m/S 653 mmHg 47%
    21:00 +29°C° 0,3 mm 1 m/S 653 mmHg 49%
    22:00 +28°C° 0,3 mm 1 m/S 653 mmHg 52%
    23:00 +27°C° 0,3 mm 1 m/S 653 mmHg 55%

    30 Juni, Freitag

    Zeit Temperatur Niederschläge Wind Luftdruck Luftfeuchtigkeit
    00:00 +27°C° 0,4 mm 1 m/S 653 mmHg 56%
    01:00 +26°C° 0,4 mm 1 m/S 653 mmHg 58%
    02:00 +25°C° 0,4 mm 1 m/S 653 mmHg 60%
    03:00 +25°C° 0,4 mm 1 m/S 652 mmHg 61%
    04:00 +24°C° 0,4 mm 1 m/S 652 mmHg 63%
    05:00 +24°C° 0,4 mm 1 m/S 652 mmHg 65%
    06:00 +26°C° 0 mm 1 m/S 653 mmHg 57%
    07:00 +27°C° 0 mm 1 m/S 653 mmHg 49%
    08:00 +29°C° 0 mm 1 m/S 653 mmHg 41%
    09:00 +30°C° 0 mm 1 m/S 653 mmHg 36%
    10:00 +32°C° 0 mm 2 m/S 654 mmHg 31%
    11:00 +34°C° 0 mm 2 m/S 654 mmHg 26%
    12:00 +35°C° 0 mm 2 m/S 653 mmHg 24%
    13:00 +36°C° 0 mm 3 m/S 653 mmHg 23%
    14:00 +36°C° 0 mm 3 m/S 653 mmHg 21%
    15:00 +36°C° 0 mm 3 m/S 653 mmHg 21%
    16:00 +36°C° 0 mm 3 m/S 653 mmHg 21%
    17:00 +36°C° 0 mm 3 m/S 652 mmHg 20%
    18:00 +34°C° 0 mm 2 m/S 652 mmHg 24%
    19:00 +31°C° 0 mm 1 m/S 652 mmHg 27%
    20:00 +29°C° 0 mm 1 m/S 652 mmHg 31%
    21:00 +29°C° 0 mm 1 m/S 652 mmHg 33%
    22:00 +28°C° 0 mm 1 m/S 652 mmHg 35%
    23:00 +25°C° 0 mm 0 m/S 652 mmHg 36%

    1 Juli, Samstag

    Zeit Temperatur Niederschläge Wind Luftdruck Luftfeuchtigkeit
    00:00 +25°C° 0 mm 0 m/S 652 mmHg 37%
    01:00 +26°C° 0 mm 1 m/S 652 mmHg 38%
    02:00 +26°C° 0 mm 1 m/S 652 mmHg 39%
    03:00 +25°C° 0 mm 1 m/S 652 mmHg 40%
    04:00 +25°C° 0 mm 1 m/S 652 mmHg 40%
    05:00 +24°C° 0 mm 1 m/S 652 mmHg 41%
    06:00 +26°C° 0 mm 1 m/S 652 mmHg 34%
    07:00 +29°C° 0 mm 1 m/S 653 mmHg 28%
    08:00 +31°C° 0 mm 1 m/S 654 mmHg 22%
    09:00 +32°C° 0 mm 1 m/S 654 mmHg 19%
    10:00 +34°C° 0 mm 2 m/S 654 mmHg 17%
    11:00 +35°C° 0 mm 2 m/S 654 mmHg 15%
    12:00 +36°C° 0 mm 2 m/S 654 mmHg 14%
    13:00 +37°C° 0 mm 2 m/S 653 mmHg 13%
    14:00 +38°C° 0 mm 3 m/S 653 mmHg 12%
    15:00 +38°C° 0 mm 3 m/S 653 mmHg 12%
    16:00 +38°C° 0 mm 3 m/S 653 mmHg 12%
    17:00 +38°C° 0 mm 3 m/S 653 mmHg 12%
    18:00 +36°C° 0 mm 2 m/S 652 mmHg 14%
    19:00 +32°C° 0 mm 2 m/S 652 mmHg 17%
    20:00 +30°C° 0 mm 1 m/S 652 mmHg 19%
    21:00 +29°C° 0 mm 1 m/S 652 mmHg 20%
    22:00 +28°C° 0 mm 1 m/S 653 mmHg 22%
    23:00 +28°C° 0 mm 1 m/S 653 mmHg 23%
    Mehr zeigen